Location: Newark
(25.4800°N, 85.7200°E)
Time: 09:33:49
(UTC+00:00)

deb Explorer IX - All Passes

Search period start: 21 August 2019 00:00
Search period end: 31 August 2019 00:00
Orbit: 540 x 1111 km, 38.8° (Epoch: 20 August)

Date Brightness Start Highest point End Pass type
(mag) Time Alt. Az. Time Alt. Az. Time Alt. Az.
21 Aug - 04:39:07 10° S 04:42:49 19° SE 04:46:54 10° E daylight
21 Aug - 06:23:37 10° WSW 06:29:22 90° SE 06:36:09 10° ENE daylight
21 Aug - 08:11:32 10° W 08:17:20 35° NNW 08:23:47 10° NE daylight
21 Aug - 10:00:24 10° NW 10:06:13 27° N 10:12:18 10° ENE daylight
21 Aug - 11:48:16 10° NW 11:55:05 40° NNE 12:01:50 10° E daylight
21 Aug - 13:35:42 10° WNW 13:43:06 82° SW 13:50:02 10° SE visible
21 Aug - 15:24:57 10° W 15:29:58 21° SW 15:34:41 10° S visible
22 Aug - 04:17:14 10° S 04:20:48 18° SE 04:24:44 10° E daylight
22 Aug - 06:01:44 10° WSW 06:07:19 88° NW 06:13:56 10° ENE daylight
22 Aug - 07:49:38 10° W 07:55:15 34° NNW 08:01:34 10° NE daylight
22 Aug - 09:38:25 10° NW 09:44:06 27° N 09:50:08 10° ENE daylight
22 Aug - 11:26:10 10° NW 11:32:56 40° NNE 11:39:46 10° E daylight
22 Aug - 13:13:32 10° WNW 13:20:56 81° SW 13:27:59 10° SE visible
22 Aug - 15:02:48 10° W 15:07:51 20° SW 15:12:38 10° S visible
23 Aug - 03:55:21 10° S 03:58:47 18° SE 04:02:34 10° E daylight
23 Aug - 05:39:52 10° WSW 05:45:16 86° NNW 05:51:44 10° ENE daylight
23 Aug - 07:27:45 10° WNW 07:33:12 33° NNW 07:39:20 10° NE daylight
23 Aug - 09:16:27 10° NW 09:22:00 26° N 09:27:58 10° ENE daylight
23 Aug - 11:04:05 10° NW 11:10:48 41° NNE 11:17:39 10° E daylight
23 Aug - 12:51:23 10° WNW 12:58:46 79° SW 13:05:55 10° SE daylight
23 Aug - 14:40:39 10° W 14:45:43 20° SW 14:50:33 10° S visible
24 Aug - 03:33:27 10° S 03:36:47 18° SE 03:40:25 10° E daylight
24 Aug - 05:18:00 10° WSW 05:23:15 84° NNW 05:29:31 10° ENE daylight
24 Aug - 07:05:53 10° WNW 07:11:08 32° NNW 07:17:06 10° NE daylight
24 Aug - 08:54:30 10° NW 08:59:55 26° N 09:05:46 10° ENE daylight
24 Aug - 10:42:01 10° NW 10:48:38 41° NNE 10:55:32 10° E daylight
24 Aug - 12:29:15 10° WNW 12:36:36 78° SW 12:43:50 10° SE daylight
24 Aug - 14:18:31 10° W 14:23:34 20° SW 14:28:27 10° S visible
25 Aug - 03:11:34 10° S 03:14:47 18° SE 03:18:17 10° E daylight
25 Aug - 04:56:09 10° WSW 05:01:13 82° NNW 05:07:18 10° ENE daylight
25 Aug - 06:44:01 10° WNW 06:49:06 31° NNW 06:54:52 10° NE daylight
25 Aug - 08:32:34 10° NW 08:37:50 25° N 08:43:34 10° ENE daylight
25 Aug - 10:19:58 10° NW 10:26:30 41° NNE 10:33:24 10° E daylight
25 Aug - 12:07:09 10° WNW 12:14:25 77° SW 12:21:42 10° SE daylight
25 Aug - 13:56:24 10° W 14:01:25 20° SW 14:06:19 10° S visible
26 Aug - 02:49:42 10° S 02:52:47 18° SE 02:56:10 10° E daylight
26 Aug - 04:34:18 10° WSW 04:39:13 80° NNW 04:45:07 10° ENE daylight
26 Aug - 06:22:11 10° WNW 06:27:03 30° NNW 06:32:37 10° NE daylight
26 Aug - 08:10:39 10° NW 08:15:45 25° N 08:21:21 10° ENE daylight
26 Aug - 09:57:56 10° NW 10:04:21 41° NNE 10:11:14 10° E daylight
26 Aug - 11:45:03 10° WNW 11:52:14 75° SW 11:59:33 10° SE daylight
26 Aug - 13:34:18 10° W 13:39:15 19° SW 13:44:08 10° S visible
27 Aug - 02:27:48 10° S 02:30:48 17° SE 02:34:04 10° E daylight
27 Aug - 04:12:27 10° WSW 04:17:14 78° NNW 04:22:55 10° NE daylight
27 Aug - 06:00:22 10° WNW 06:05:02 28° NNW 06:10:22 10° NE daylight
27 Aug - 07:48:44 10° NW 07:53:40 24° N 07:59:07 10° ENE daylight
27 Aug - 09:35:55 10° NW 09:42:13 42° NNE 09:49:03 10° E daylight
27 Aug - 11:22:58 10° WNW 11:30:02 74° SW 11:37:23 10° SE daylight
27 Aug - 13:12:14 10° W 13:17:06 19° SW 13:21:56 10° S visible
28 Aug - 02:05:54 10° S 02:08:50 17° SE 02:11:59 10° E daylight
28 Aug - 03:50:37 10° WSW 03:55:14 75° NNW 04:00:45 10° NE daylight
28 Aug - 05:38:32 10° WNW 05:43:01 27° NNW 05:48:07 10° NE daylight
28 Aug - 07:26:52 10° NW 07:31:36 24° N 07:36:53 10° ENE daylight
28 Aug - 09:13:55 10° NW 09:20:05 42° NNE 09:26:52 10° E daylight
28 Aug - 11:00:53 10° WNW 11:07:51 72° SW 11:15:12 10° SE daylight
28 Aug - 12:50:10 10° W 12:54:56 19° SW 12:59:42 10° S daylight
29 Aug - 01:43:59 10° S 01:46:51 17° SE 01:49:55 10° E daylight
29 Aug - 03:28:46 10° WSW 03:33:16 73° NNW 03:38:35 10° NE daylight
29 Aug - 05:16:44 10° WNW 05:21:01 26° NNW 05:25:52 10° NE daylight
29 Aug - 07:04:58 10° NW 07:09:33 23° N 07:14:38 10° ENE daylight
29 Aug - 08:51:56 10° NW 08:57:56 42° NNE 09:04:38 10° E daylight
29 Aug - 10:38:50 10° WNW 10:45:40 71° SW 10:52:59 10° SE daylight
29 Aug - 12:28:09 10° W 12:32:45 18° SW 12:37:26 10° S daylight
30 Aug - 01:22:04 10° S 01:24:53 17° SE 01:27:53 10° E daylight
30 Aug - 03:06:55 10° WSW 03:11:19 70° NNW 03:16:25 10° NE daylight
30 Aug - 04:54:56 10° WNW 04:59:00 25° NNW 05:03:38 10° NE daylight
30 Aug - 06:43:07 10° NW 06:47:30 22° N 06:52:24 10° ENE daylight
30 Aug - 08:29:57 10° NW 08:35:49 41° NNE 08:42:25 10° E daylight
30 Aug - 10:16:48 10° WNW 10:23:29 69° SW 10:30:46 10° SE daylight
30 Aug - 12:06:08 10° W 12:10:35 17° SW 12:15:08 10° S daylight
